This demonstration page uses our WeatherBlox Daily Observations layout. Learn more.

41.55636, -103.73856

Hourly Observations for March 21, 2019

Temp ( °F °C ) Dew Point ( °F °C ) Humidity (%) Winds ( mph kmh ) Pressure ( in mb ) Visibility ( mi km ) Precip ( " mm )
12:53 am 00:53 Clear 31 -0.6 28 -2.2 89 89 NW 6 9 30.24 1024 10 16.09344 0 0
1:53 am 01:53 Clear 31 -0.6 29 -1.7 92 92 Calm 30.21 1023 10 16.09344 0 0
2:53 am 02:53 Clear 30 -1.1 28 -2.2 92 92 WNW 5 7 30.21 1023 10 16.09344 0 0
3:53 am 03:53 Clear 28 -2.2 26 -3.3 92 92 NNE 3 6 30.21 1023 10 16.09344 0 0
4:53 am 04:53 Clear 28 -2.2 27 -2.8 96 96 NNW 5 7 30.21 1023 10 16.09344 0 0
5:53 am 05:53 Clear 25 -3.9 25 -3.9 100 100 NW 6 9 30.21 1023 10 16.09344 0 0
6:53 am 06:53 Clear 26 -3.3 26 -3.3 100 100 N 7 11 30.24 1024 10 16.09344 0 0
7:53 am 07:53 Sunny 30 -1.1 29 -1.7 96 96 NW 3 6 30.24 1024 10 16.09344 0 0
8:53 am 08:53 Sunny 37 2.8 33 0.6 86 86 WNW 3 6 30.21 1023 10 16.09344 0 0
9:53 am 09:53 Sunny 43 6.1 33 0.6 68 68 NNW 6 9 30.21 1023 10 16.09344 0 0
10:53 am 10:53 Sunny 50 10 34 1.1 54 54 Calm 30.18 1022 10 16.09344 0 0
11:53 am 11:53 Sunny 53 11.7 35 1.7 51 51 Calm 30.15 1021 10 16.09344 0 0
12:53 pm 12:53 Sunny 58 14.4 35 1.7 42 42 VRB 3 6 30.12 1020 10 16.09344 0 0
1:53 pm 13:53 Sunny 61 16.1 36 2.2 39 39 ESE 5 7 30.09 1019 10 16.09344 0 0
2:53 pm 14:53 Sunny 63 17.2 36 2.2 37 37 E 8 13 30.06 1018 10 16.09344 0 0
3:53 pm 15:53 Sunny 65 18.3 34 1.1 32 32 E 12 19 30.03 1017 10 16.09344 0 0
4:53 pm 16:53 Sunny 64 17.8 31 -0.6 29 29 SE 12 19 30.03 1017 10 16.09344 0 0
5:53 pm 17:53 Sunny 59 15 39 3.9 48 48 E 9 15 30.03 1017 10 16.09344 0 0
7:53 pm 19:53 Clear 48 8.9 38 3.3 68 68 ENE 13 20 30.06 1018 10 16.09344 0 0
8:53 pm 20:53 Clear 43 6.1 36 2.2 76 76 E 7 11 30.06 1018 10 16.09344 0 0
9:53 pm 21:53 Clear 44 6.7 35 1.7 71 71 E 10 17 30.06 1018 10 16.09344 0 0
10:53 pm 22:53 Clear 45 7.2 34 1.1 66 66 E 10 17 30.03 1017 10 16.09344 0 0
11:53 pm 23:53 Clear 40 4.4 33 0.6 77 77 ESE 9 15 30.06 1018 10 16.09344 0 0

Powered by AerisWeather